Weather History for Asheville, NC

Change the Weather History Date:

Friday, November 23, 2007

  Actual Average Record
Temperature  
Mean Temperature 33 °F 45 °F  
Max Temperature 39 °F 56 °F 75 °F (1973)
Min Temperature 26 °F 34 °F 13 °F (1937)
Degree Days  
Heating Degree Days 32 20  
Month to date heating degree days 413 383  
Since 1 July heating degree days 645 718  
Cooling Degree Days 0 0  
Month to date cooling degree days 0 0  
Year to date cooling degree days 984 862  
Moisture  
Dew Point 24 °F    
Average Humidity 65    
Maximum Humidity 81    
Minimum Humidity 48    
Precipitation  
Precipitation 0.00 in 0.14 in 2.63 in (1961)
Month to date precipitation 0.97 2.70  
Year to date precipitation 29.81 41.03  
Snow  
Snow 0.00 in 0.00 in 5.00 in (1975)
Month to date snowfall T 0.1  
Since 1 July snowfall T 0.1  
Since 1 September snowfall T 0.1  
Snow Depth -    
Sea Level Pressure  
Sea Level Pressure 30.24 in    
Wind  
Wind Speed 12 mph (NNW)    
Max Wind Speed 26 mph    
Max Gust Speed 32 mph    
Visibility 10 miles    
Events      
T = Trace of Precipitation, MM = Missing Value Source: NWS Daily Summary

Daily Weather History Graph

Daily Weather History Graph

Search for Another Location

Airport:

Trip Planner

Search our weather history database for the weather conditions in past years. The results will help you decide how hot, cold, wet, or windy it might be!

Date:

Astronomy

Nov. 23, 2007 Rise Set
Actual Time 7:13 AM EST 5:19 PM EST
Civil Twilight 6:45 AM EST 5:47 PM EST
Nautical Twilight 6:14 AM EST 6:18 PM EST
Astronomical Twilight 5:43 AM EST 6:48 PM EST
Moon 4:20 PM EST (11/23) 6:04 AM EST (11/23)
Length of Visible Light 11h 01m
Length of Day
10h 06m
Waxing Gibbous, 99% of the Moon is Illuminated
Nov 23
Waxing Gibbous
Nov 24
Full
Dec 1
Last Quarter
Dec 9
New
Dec 17
First Quarter

Hourly Weather History & Observations

Time (EST) Temp. Windchill Dew Point Humidity Pressure Visibility Wind Dir Wind Speed Gust Speed Precip Events Conditions
12:54 AM 36.0 °F 24.4 °F 26.1 °F 67% 30.10 in 10.0 mi NNW 23.0 mph 29.9 mph N/A   Clear
1:54 AM 35.1 °F 25.2 °F 26.1 °F 70% 30.11 in 10.0 mi NNW 16.1 mph - N/A   Clear
2:54 AM 35.1 °F 25.2 °F 26.1 °F 70% 30.13 in 10.0 mi NNW 16.1 mph 21.9 mph N/A   Clear
3:54 AM 36.0 °F 25.3 °F 25.0 °F 64% 30.13 in 10.0 mi NW 19.6 mph - N/A   Mostly Cloudy
4:54 AM 36.0 °F 26.0 °F 27.0 °F 70% 30.14 in 10.0 mi NNW 17.3 mph - N/A   Mostly Cloudy
5:54 AM 36.0 °F 26.3 °F 28.9 °F 76% 30.14 in 10.0 mi North 16.1 mph 23.0 mph N/A   Mostly Cloudy
6:52 AM 35.6 °F 25.9 °F 28.4 °F 75% 30.15 in 10.0 mi NNW 16.1 mph 21.9 mph N/A   Overcast
6:54 AM 35.6 °F 26.2 °F 28.4 °F 75% 30.15 in 10.0 mi NNW 15.0 mph 21.9 mph N/A   Overcast
7:54 AM 36.0 °F 26.7 °F 28.0 °F 73% 30.20 in 10.0 mi NNW 15.0 mph 23.0 mph N/A   Overcast
8:54 AM 35.1 °F 26.4 °F 28.0 °F 76% 30.23 in 10.0 mi NNW 12.7 mph 19.6 mph N/A   Overcast
9:54 AM 35.1 °F 27.4 °F 27.0 °F 72% 30.26 in 10.0 mi North 10.4 mph 18.4 mph N/A   Overcast
10:54 AM 35.1 °F 25.9 °F 26.1 °F 70% 30.27 in 10.0 mi North 13.8 mph 23.0 mph N/A   Overcast
11:19 AM 35.6 °F 25.9 °F 26.6 °F 70% 30.26 in 10.0 mi NNW 16.1 mph - N/A   Overcast
11:54 AM 37.9 °F 28.9 °F 23.0 °F 55% 30.27 in 10.0 mi NNW 16.1 mph 21.9 mph N/A   Overcast
12:54 PM 39.0 °F 31.0 °F 21.9 °F 50% 30.26 in 10.0 mi North 13.8 mph 19.6 mph N/A   Partly Cloudy
1:54 PM 37.9 °F 30.0 °F 21.0 °F 51% 30.25 in 10.0 mi North 12.7 mph 20.7 mph N/A   Clear
2:54 PM 37.9 °F 30.0 °F 19.9 °F 48% 30.25 in 10.0 mi North 12.7 mph - N/A   Partly Cloudy
3:54 PM 37.9 °F 29.2 °F 21.0 °F 51% 30.26 in 10.0 mi NNW 15.0 mph - N/A   Clear
4:54 PM 36.0 °F 28.0 °F 21.0 °F 55% 30.28 in 10.0 mi NNW 11.5 mph - N/A   Clear
5:54 PM 34.0 °F 26.6 °F 21.0 °F 59% 30.30 in 10.0 mi North 9.2 mph - N/A   Clear
6:54 PM 32.0 °F 24.2 °F 21.0 °F 64% 30.32 in 10.0 mi NNW 9.2 mph - N/A   Clear
7:54 PM 32.0 °F 26.4 °F 21.0 °F 64% 30.32 in 10.0 mi North 5.8 mph - N/A   Clear
8:54 PM 30.9 °F 26.2 °F 21.0 °F 67% 30.33 in 10.0 mi North 4.6 mph - N/A   Clear
9:54 PM 28.0 °F - 21.9 °F 78% 30.34 in 10.0 mi Calm Calm - N/A   Clear
10:54 PM 27.0 °F 23.0 °F 21.0 °F 78% 30.36 in 10.0 mi North 3.5 mph - N/A   Clear
11:54 PM 26.1 °F - 21.0 °F 81% 30.35 in 10.0 mi Calm Calm - N/A   Clear